This demonstration page uses our WeatherBlox Daily Observations layout. Learn more.

Hourly Observations for October 31, 2020

Temp ( °F °C ) Dew Point ( °F °C ) Humidity (%) Winds ( mph kmh ) Pressure ( in mb ) Visibility ( mi km ) Precip ( " mm )
12:53 am 00:53 Clear 52 11.1 30 -1.1 43 43 SW 12 19 29.75 1007 10 16.0934 0 0
1:53 am 01:53 Clear 40 4.4 29 -1.7 65 65 NW 3 6 29.78 1008 10 16.0934 0 0
2:53 am 02:53 Clear 40 4.4 29 -1.7 65 65 N 3 6 29.78 1009 10 16.0934 0 0
3:53 am 03:53 Clear 38 3.3 30 -1.1 73 73 N 15 24 29.83 1010 10 16.0934 0 0
4:53 am 04:53 Clear 47 8.3 30 -1.1 52 52 WNW 13 20 29.86 1011 10 16.0934 0 0
5:53 am 05:53 Clear 47 8.3 31 -0.6 54 54 WNW 9 15 29.93 1014 10 16.0934 0 0
6:53 am 06:53 Clear 45 7.2 31 -0.6 58 58 WNW 9 15 29.99 1016 10 16.0934 0 0
7:53 am 07:53 Sunny 43 6.1 31 -0.6 63 63 WNW 13 20 30.05 1018 10 16.0934 0 0
8:53 am 08:53 Sunny 47 8.3 32 0 56 56 W 9 15 30.09 1019 10 16.0934 0 0
9:53 am 09:53 Sunny 50 10 33 0.6 52 52 WNW 16 26 30.14 1021 10 16.0934 0 0
10:53 am 10:53 Mostly Sunny 54 12.2 33 0.6 45 45 NW 15 24 30.14 1021 10 16.0934 0 0
11:53 am 11:53 Sunny 57 13.9 29 -1.7 34 34 NNW 20 31 30.15 1021 10 16.0934 0 0
12:53 pm 12:53 Sunny 58 14.4 29 -1.7 33 33 NNW 17 28 30.18 1022 10 16.0934 0 0
1:53 pm 13:53 Sunny 58 14.4 29 -1.7 33 33 NNW 22 35 30.22 1023 10 16.0934 0 0
2:53 pm 14:53 Sunny 57 13.9 28 -2.2 33 33 NW 22 35 30.23 1024 10 16.0934 0 0
3:53 pm 15:53 Sunny 57 13.9 28 -2.2 33 33 NNW 18 30 30.27 1025 10 16.0934 0 0
4:53 pm 16:53 Sunny 55 12.8 29 -1.7 37 37 NNW 15 24 30.27 1025 10 16.0934 0 0
5:53 pm 17:53 Clear 47 8.3 29 -1.7 50 50 NNW 6 9 30.3 1026 10 16.0934 0 0
6:53 pm 18:53 Clear 41 5 30 -1.1 65 65 N 5 7 30.36 1028 10 16.0934 0 0
7:53 pm 19:53 Clear 38 3.3 29 -1.7 70 70 N 3 6 30.4 1030 10 16.0934 0 0
8:53 pm 20:53 Clear 35 1.7 27 -2.8 72 72 undefined N/A 30.41 1030 10 16.0934 0 0
9:53 pm 21:53 Clear 32 0 27 -2.8 82 82 undefined N/A 30.45 1031 10 16.0934 0 0
10:53 pm 22:53 Clear 32 0 27 -2.8 82 82 undefined N/A 30.44 1031 10 16.0934 0 0
11:53 pm 23:53 Clear 30 -1.1 26 -3.3 85 85 N 3 6 30.44 1031 10 16.0934 0 0

Powered by AerisWeather